Weather History for Findlay, OH

Change the Weather History Date:

Wednesday, March 6, 2013

  Actual Average Record
Temperature  
Mean Temperature 32 °F -  
Max Temperature 37 °F 41 °F 72 °F (1973)
Min Temperature 28 °F 26 °F 0 °F (1960)
Degree Days  
Heating Degree Days 32    
Moisture  
Dew Point 27 °F    
Average Humidity 80    
Maximum Humidity 93    
Minimum Humidity 70    
Precipitation  
Precipitation 0.01 in - - ()
Sea Level Pressure  
Sea Level Pressure 30.04 in    
Wind  
Wind Speed 16 mph (NNW)    
Max Wind Speed 25 mph    
Max Gust Speed 33 mph    
Visibility 9 miles    
Events Snow    
Averages and records for this station are not official NWS values.
T = Trace of Precipitation, MM = Missing Value Source: NWS Daily Summary

Daily Weather History Graph

Daily Weather History Graph

Search for Another Location

Airport:

Trip Planner

Search our weather history database for the weather conditions in past years. The results will help you decide how hot, cold, wet, or windy it might be!

Date:

Astronomy

Mar. 06, 2013 Rise Set
Actual Time 7:00 AM EST 6:31 PM EST
Civil Twilight 6:33 AM EST 6:59 PM EST
Nautical Twilight 6:01 AM EST 7:31 PM EST
Astronomical Twilight 5:29 AM EST 8:03 PM EST
Moon 3:10 AM EST (3/6) 1:10 PM EST (3/6)
Length of Visible Light 12h 26m
Length of Day
11h 31m
Waning Crescent, 30% of the Moon is Illuminated
Mar 6
Waning Crescent
Mar 11
New
Mar 19
First Quarter
Mar 27
Full
Apr 3
Last Quarter

Hourly Weather History & Observations

Time (EST) Temp. Windchill Dew Point Humidity Pressure Visibility Wind Dir Wind Speed Gust Speed Precip Events Conditions
12:53 AM 28.9 °F 15.1 °F 27.0 °F 92% 29.70 in 1.0 mi NNE 23.0 mph 31.1 mph 0.01 in Snow Light Snow
1:33 AM 28.4 °F 14.7 °F 26.6 °F 93% 29.69 in 3.0 mi NNE 21.9 mph 28.8 mph 0.00 in Snow Light Snow
1:53 AM 28.9 °F 14.8 °F 25.0 °F 85% 29.71 in 7.0 mi NNE 24.2 mph 33.4 mph 0.00 in   Overcast
2:53 AM 28.9 °F 15.4 °F 25.0 °F 85% 29.73 in 8.0 mi NNE 21.9 mph 33.4 mph N/A   Overcast
3:53 AM 28.9 °F 14.5 °F 25.0 °F 85% 29.76 in 10.0 mi NNE 25.3 mph 33.4 mph N/A   Overcast
4:53 AM 28.9 °F 15.1 °F 25.0 °F 85% 29.81 in 10.0 mi NNE 23.0 mph 29.9 mph N/A   Overcast
5:53 AM 28.9 °F 16.1 °F 25.0 °F 85% 29.85 in 10.0 mi North 19.6 mph 27.6 mph N/A   Overcast
7:53 AM 30.0 °F 18.7 °F 26.1 °F 85% 29.94 in 9.0 mi North 16.1 mph - N/A   Overcast
8:53 AM 30.9 °F 20.7 °F 26.1 °F 82% 29.99 in 10.0 mi North 13.8 mph - N/A   Overcast
9:53 AM 32.0 °F 22.1 °F 27.0 °F 82% 30.02 in 10.0 mi North 13.8 mph - N/A   Overcast
10:53 AM 33.1 °F 24.4 °F 27.0 °F 78% 30.05 in 10.0 mi North 11.5 mph - N/A   Overcast
11:53 AM 34.0 °F 26.0 °F 28.0 °F 79% 30.08 in 10.0 mi North 10.4 mph - N/A   Overcast
12:27 PM 35.6 °F 28.0 °F 28.4 °F 75% 30.06 in 10.0 mi North 10.4 mph - N/A   Overcast
12:53 PM 36.0 °F 28.5 °F 28.0 °F 73% 30.09 in 10.0 mi North 10.4 mph - N/A   Mostly Cloudy
1:53 PM 36.0 °F 28.0 °F 28.0 °F 73% 30.10 in 10.0 mi North 11.5 mph - N/A   Overcast
2:48 PM 35.6 °F 28.6 °F 28.4 °F 75% 30.09 in 10.0 mi North 9.2 mph - N/A   Overcast
2:53 PM 36.0 °F 29.0 °F 28.9 °F 76% 30.11 in 10.0 mi NNW 9.2 mph - N/A   Overcast
3:45 PM 35.6 °F 28.0 °F 28.4 °F 75% 30.10 in 10.0 mi NW 10.4 mph - N/A   Overcast
3:53 PM 36.0 °F 29.0 °F 28.9 °F 76% 30.12 in 10.0 mi NW 9.2 mph - N/A   Overcast
4:17 PM 37.4 °F 30.8 °F 28.4 °F 70% 30.11 in 10.0 mi NW 9.2 mph - N/A   Overcast
4:53 PM 36.0 °F 29.0 °F 28.9 °F 76% 30.13 in 10.0 mi NW 9.2 mph - N/A   Overcast
5:38 PM 35.6 °F 27.1 °F 28.4 °F 75% 30.13 in 10.0 mi NW 12.7 mph - N/A   Overcast
5:53 PM 35.1 °F 28.6 °F 28.0 °F 76% 30.16 in 10.0 mi NW 8.1 mph - N/A   Overcast
6:53 PM 34.0 °F 26.6 °F 28.0 °F 79% 30.18 in 9.0 mi WNW 9.2 mph - N/A   Overcast
7:29 PM 33.8 °F 27.0 °F 28.4 °F 81% 30.17 in 9.0 mi WNW 8.1 mph - N/A   Overcast
7:53 PM 33.1 °F 26.1 °F 27.0 °F 78% 30.19 in 9.0 mi WNW 8.1 mph - N/A   Overcast
8:53 PM 33.1 °F 26.1 °F 27.0 °F 78% 30.21 in 8.0 mi West 8.1 mph - N/A   Overcast
9:53 PM 32.0 °F 24.2 °F 27.0 °F 82% 30.22 in 8.0 mi West 9.2 mph - N/A   Overcast
10:40 PM 32.0 °F 24.8 °F 26.6 °F 80% 30.20 in 7.0 mi West 8.1 mph - N/A   Overcast
10:53 PM 32.0 °F 24.8 °F 27.0 °F 82% 30.22 in 7.0 mi West 8.1 mph - N/A   Overcast
11:53 PM 30.9 °F 25.2 °F 27.0 °F 85% 30.21 in 7.0 mi West 5.8 mph - N/A   Overcast